Location: Tamazert
(32.6352°N, 5.2072°W)
Time: 04:29:55
(UTC+00:00)

Vanguard 2 Rocket - Pass Details

Date: 04 October 2022
Orbit: 555 x 3321 km, 32.9° (Epoch: 05 December)

Event Time Altitude Azimuth Distance (km) Brightness Sun altitude
Rises 03:12:24 0° 282° (WNW) 4,938 - -38.8°
Reaches altitude 10° 03:16:24 10° 279° (W) 3,493 - -38.1°
Maximum altitude 03:24:19 62° 202° (SSW) 1,023 - -36.5°
Exits shadow 03:28:27 15° 123° (ESE) 1,904 8.8 -35.7°
Drops below altitude 10° 03:29:07 10° 121° (ESE) 2,150 9.2 -35.6°
Sets 03:31:05 0° 117° (ESE) 2,918 10.0 -35.2°
